| time (UTC) | temp F | wind direction | speed MPH | gust MPH | rain 1hr in | rain 24hr in | rain mn in | humidity % | barometer mb |
| 20260901224551 | 92 | 240 | 0.0 | 2.0 | 0.00 | 0.10 | 0.00 | 67 | 1011.4 |
| 20260901223050 | 93 | 276 | 0.0 | 3.0 | 0.00 | 0.10 | 0.00 | 65 | 1011.4 |
| 20260901221552 | 93 | 277 | 1.0 | 4.0 | 0.00 | 0.10 | 0.00 | 64 | 1011.4 |
| 20260901220027 | 94 | 263 | 1.0 | 5.0 | 0.00 | 0.10 | 0.00 | 63 | 1011.3 |
| 20260901214515 | 94 | 236 | 0.0 | 4.0 | 0.00 | 0.10 | 0.00 | 66 | 1011.3 |
| 20260901213020 | 94 | 284 | 1.0 | 5.0 | 0.00 | 0.10 | 0.00 | 64 | 1011.3 |
| 20260901211514 | 96 | 169 | 1.0 | 5.0 | 0.00 | 0.10 | 0.00 | 61 | 1011.5 |
| 20260901210011 | 96 | 284 | 2.0 | 5.0 | 0.00 | 0.10 | 0.00 | 60 | 1011.5 |
| 20260901204514 | 96 | 270 | 2.0 | 8.0 | 0.00 | 0.10 | 0.00 | 59 | 1011.6 |
| 20260901203005 | 97 | 176 | 1.0 | 4.0 | 0.00 | 0.10 | 0.00 | 60 | 1011.8 |
| 20260901201503 | 97 | 259 | 0.0 | 4.0 | 0.00 | 0.10 | 0.00 | 60 | 1011.7 |
| 20260901200004 | 97 | 279 | 1.0 | 5.0 | 0.00 | 0.10 | 0.00 | 60 | 1011.8 |
| 20260901194529 | 96 | 258 | 0.0 | 6.0 | 0.00 | 0.10 | 0.00 | 61 | 1011.9 |
| 20260901193027 | 96 | 307 | 2.0 | 6.0 | 0.00 | 0.10 | 0.00 | 61 | 1011.9 |
| 20260901191530 | 96 | 259 | 2.0 | 8.0 | 0.00 | 0.10 | 0.00 | 62 | 1012.1 |
| 20260901190024 | 95 | 297 | 2.0 | 8.0 | 0.00 | 0.10 | 0.00 | 61 | 1012.2 |
| 20260901184519 | 96 | 168 | 0.0 | 5.0 | 0.00 | 0.10 | 0.00 | 66 | 1012.2 |
| 20260901183023 | 95 | 277 | 0.0 | 4.0 | 0.00 | 0.10 | 0.00 | 66 | 1012.3 |
| 20260901181518 | 95 | 145 | 2.0 | 5.0 | 0.00 | 0.10 | 0.00 | 66 | 1012.3 |
| 20260901180006 | 94 | 262 | 0.0 | 4.0 | 0.00 | 0.10 | 0.00 | 67 | 1012.4 |
| 20260901174503 | 93 | 210 | 1.0 | 4.0 | 0.00 | 0.10 | 0.00 | 68 | 1012.5 |
| 20260901173105 | 93 | 207 | 2.0 | 6.0 | 0.00 | 0.10 | 0.00 | 67 | 1012.6 |
| 20260901171527 | 92 | 167 | 1.0 | 5.0 | 0.00 | 0.10 | 0.00 | 70 | 1012.8 |
| 20260901170020 | 91 | 209 | 1.0 | 4.0 | 0.00 | 0.10 | 0.00 | 70 | 1012.8 |
| 20260901164515 | 91 | 240 | 1.0 | 4.0 | 0.00 | 0.10 | 0.10 | 70 | 1012.8 |
| 20260901163010 | 90 | 248 | 1.0 | 4.0 | 0.00 | 0.10 | 0.10 | 70 | 1013.0 |
| 20260901161522 | 89 | 255 | 1.0 | 4.0 | 0.00 | 0.10 | 0.10 | 71 | 1013.0 |
| 20260901160009 | 87 | 243 | 0.0 | 4.0 | 0.00 | 0.10 | 0.10 | 74 | 1013.1 |
| 20260901154511 | 86 | 245 | 0.0 | 4.0 | 0.00 | 0.10 | 0.10 | 75 | 1013.0 |
| 20260901153011 | 84 | 227 | 0.0 | 3.0 | 0.00 | 0.10 | 0.10 | 79 | 1013.0 |
| 20260901151518 | 83 | 207 | 0.0 | 3.0 | 0.00 | 0.10 | 0.10 | 79 | 1013.1 |
| 20260901150006 | 83 | 303 | 0.0 | 2.0 | 0.00 | 0.10 | 0.10 | 78 | 1013.0 |
| 20260901144503 | 82 | 274 | 0.0 | 3.0 | 0.01 | 0.11 | 0.10 | 80 | 1013.0 |
| 20260901143003 | 81 | 268 | 1.0 | 2.0 | 0.01 | 0.11 | 0.10 | 81 | 1012.9 |
| 20260901141504 | 79 | 243 | 0.0 | 3.0 | 0.01 | 0.11 | 0.10 | 85 | 1013.0 |
| 20260901140003 | 78 | 214 | 0.0 | 3.0 | 0.01 | 0.11 | 0.10 | 86 | 1013.1 |
| 20260901134559 | 76 | 251 | 0.0 | 2.0 | 0.00 | 0.10 | 0.09 | 88 | 1013.1 |
| 20260901133057 | 75 | 258 | 0.0 | 2.0 | 0.00 | 0.10 | 0.09 | 89 | 1013.2 |
| 20260901131558 | 75 | 264 | 0.0 | 1.0 | 0.00 | 0.10 | 0.09 | 90 | 1013.4 |
| 20260901130057 | 74 | 251 | 0.0 | 1.0 | 0.00 | 0.10 | 0.09 | 91 | 1013.5 |
| 20260901124556 | 73 | 184 | 0.0 | 1.0 | 0.00 | 0.10 | 0.09 | 91 | 1013.4 |
| 20260901123052 | 0 | 0.0 | 0.0 | 0.00 | 0.10 | 0.09 | 1013.1 | ||
| 20260901121545 | 0 | 0.0 | 0.0 | 0.00 | 0.10 | 0.09 | 1013.2 | ||
| 20260901120041 | 0 | 0.0 | 0.0 | 0.00 | 0.10 | 0.09 | 1012.9 | ||
| 20260901114535 | 0 | 0.0 | 0.0 | 0.00 | 0.10 | 0.09 | 1012.8 | ||
| 20260901113035 | 0 | 0.0 | 0.0 | 0.00 | 0.10 | 0.09 | 1012.5 | ||
| 20260901111526 | 0 | 0.0 | 0.0 | 0.01 | 0.10 | 0.09 | 1012.4 | ||
| 20260901110024 | 0 | 0.0 | 0.0 | 0.01 | 0.10 | 0.09 | 1012.4 | ||
| 20260901104521 | 0 | 0.0 | 0.0 | 0.02 | 0.10 | 0.09 | 1012.0 | ||
| 20260901103011 | 0 | 286 | 0.0 | 2.0 | 0.02 | 0.10 | 0.09 | 1012.4 | |
| 20260901101516 | 74 | 162 | 0.0 | 1.0 | 0.01 | 0.09 | 0.08 | 89 | 1012.2 |
| 20260901100007 | 75 | 266 | 0.0 | 1.0 | 0.02 | 0.09 | 0.08 | 88 | 1012.2 |
| 20260901094505 | 75 | 247 | 0.0 | 3.0 | 0.05 | 0.08 | 0.07 | 88 | 1012.0 |
| 20260901093001 | 75 | 272 | 0.0 | 2.0 | 0.05 | 0.08 | 0.07 | 87 | 1011.8 |
| 20260901091600 | 76 | 265 | 1.0 | 3.0 | 0.05 | 0.08 | 0.07 | 86 | 1011.9 |
| 20260901090059 | 77 | 247 | 0.0 | 3.0 | 0.05 | 0.08 | 0.07 | 83 | 1012.2 |
| 20260901084558 | 78 | 283 | 1.0 | 4.0 | 0.00 | 0.03 | 0.02 | 81 | 1011.9 |
| 20260901083055 | 78 | 248 | 0.0 | 5.0 | 0.00 | 0.03 | 0.02 | 80 | 1011.9 |
| 20260901081601 | 78 | 277 | 1.0 | 5.0 | 0.00 | 0.03 | 0.02 | 79 | 1011.7 |
| 20260901080145 | 79 | 277 | 1.0 | 8.0 | 0.00 | 0.03 | 0.02 | 78 | 1011.5 |
| 20260901074553 | 79 | 261 | 2.0 | 8.0 | 0.00 | 0.03 | 0.02 | 78 | 1011.4 |
| 20260901073023 | 79 | 191 | 2.0 | 6.0 | 0.00 | 0.03 | 0.02 | 78 | 1011.6 |
| 20260901071522 | 79 | 262 | 1.0 | 6.0 | 0.00 | 0.03 | 0.02 | 78 | 1011.5 |
| 20260901070027 | 78 | 252 | 2.0 | 8.0 | 0.00 | 0.03 | 0.02 | 80 | 1011.4 |
| 20260901064517 | 76 | 243 | 0.0 | 0.0 | 0.00 | 0.03 | 0.02 | 84 | 1011.3 |
| 20260901063018 | 76 | 176 | 0.0 | 0.0 | 0.00 | 0.03 | 0.02 | 84 | 1011.4 |
| 20260901061517 | 76 | 122 | 0.0 | 4.0 | 0.00 | 0.03 | 0.02 | 84 | 1011.5 |
| 20260901060012 | 76 | 181 | 0.0 | 2.0 | 0.00 | 0.03 | 0.02 | 85 | 1011.5 |
| 20260901054512 | 76 | 161 | 0.0 | 2.0 | 0.00 | 0.03 | 0.02 | 85 | 1011.6 |
| 20260901053011 | 76 | 222 | 0.0 | 2.0 | 0.00 | 0.03 | 0.02 | 85 | 1011.6 |
| 20260901051509 | 77 | 142 | 0.0 | 2.0 | 0.00 | 0.03 | 0.02 | 84 | 1011.7 |
| 20260901050007 | 77 | 167 | 0.0 | 2.0 | 0.00 | 0.03 | 0.02 | 84 | 1011.6 |
| 20260901044506 | 77 | 248 | 0.0 | 2.0 | 0.00 | 0.04 | 0.02 | 83 | 1011.6 |
| 20260901043003 | 78 | 187 | 1.0 | 3.0 | 0.00 | 0.04 | 0.02 | 83 | 1011.7 |
| 20260901041502 | 78 | 224 | 0.0 | 2.0 | 0.00 | 0.04 | 0.02 | 82 | 1011.6 |
| 20260901040103 | 79 | 218 | 0.0 | 3.0 | 0.00 | 0.04 | 0.02 | 82 | 1011.6 |
| 20260901034555 | 79 | 296 | 0.0 | 3.0 | 0.00 | 0.04 | 0.02 | 81 | 1011.5 |
| 20260901033054 | 79 | 224 | 0.0 | 4.0 | 0.00 | 0.04 | 0.02 | 81 | 1011.5 |
| 20260901031557 | 79 | 255 | 0.0 | 2.0 | 0.00 | 0.04 | 0.02 | 81 | 1011.7 |
| 20260901030053 | 79 | 166 | 0.0 | 2.0 | 0.00 | 0.04 | 0.02 | 81 | 1011.8 |
| 20260901024600 | 79 | 153 | 0.0 | 3.0 | 0.00 | 0.04 | 0.02 | 81 | 1011.7 |
| 20260901023052 | 79 | 169 | 0.0 | 1.0 | 0.00 | 0.04 | 0.02 | 82 | 1011.7 |
| 20260901021606 | 79 | 156 | 0.0 | 3.0 | 0.00 | 0.04 | 0.02 | 83 | 1011.8 |
| 20260901020020 | 79 | 174 | 0.0 | 0.0 | 0.00 | 0.04 | 0.02 | 83 | 1011.9 |
| 20260901014520 | 79 | 238 | 0.0 | 1.0 | 0.00 | 0.04 | 0.02 | 83 | 1011.7 |
| 20260901013018 | 80 | 238 | 0.0 | 1.0 | 0.00 | 0.04 | 0.02 | 83 | 1011.7 |
| 20260901011525 | 80 | 337 | 0.0 | 1.0 | 0.02 | 0.04 | 0.02 | 83 | 1011.5 |
| 20260901010017 | 80 | 155 | 0.0 | 5.0 | 0.02 | 0.04 | 0.02 | 82 | 1011.2 |
| 20260901004516 | 80 | 266 | 1.0 | 5.0 | 0.02 | 0.04 | 0.02 | 83 | 1010.7 |
| 20260901003013 | 82 | 46 | 1.0 | 6.0 | 0.02 | 0.04 | 0.02 | 81 | 1010.2 |
| 20260901001510 | 84 | 136 | 0.0 | 3.0 | 0.00 | 0.02 | 0.00 | 75 | 1012.0 |
| 20260901000015 | 85 | 165 | 1.0 | 3.0 | 0.00 | 0.02 | 0.00 | 73 | 1012.1 |
| 20260831234509 | 86 | 241 | 0.0 | 4.0 | 0.00 | 0.02 | 0.00 | 71 | 1011.5 |
| 20260831233006 | 87 | 104 | 0.0 | 2.0 | 0.00 | 0.02 | 0.00 | 70 | 1011.8 |